| time (UTC) | temp F | wind direction | speed MPH | gust MPH | rain 1hr in | rain 24hr in | rain mn in | humidity % | barometer mb |
| 20260905204550 | 73 | 351 | 6.0 | 13.0 | 0.00 | 0.00 | 0.00 | 83 | 1016.7 |
| 20260905203042 | 74 | 47 | 7.0 | 13.0 | 0.00 | 0.00 | 0.00 | 82 | 1016.6 |
| 20260905201550 | 75 | 49 | 6.0 | 15.0 | 0.00 | 0.00 | 0.00 | 82 | 1016.7 |
| 20260905200042 | 75 | 29 | 6.0 | 13.0 | 0.00 | 0.00 | 0.00 | 82 | 1016.6 |
| 20260905194546 | 75 | 27 | 6.0 | 10.0 | 0.00 | 0.00 | 0.00 | 83 | 1016.7 |
| 20260905193041 | 74 | 30 | 5.0 | 11.0 | 0.00 | 0.00 | 0.00 | 84 | 1016.6 |
| 20260905191541 | 75 | 59 | 4.0 | 10.0 | 0.00 | 0.00 | 0.00 | 84 | 1016.7 |
| 20260905190041 | 76 | 74 | 5.0 | 14.0 | 0.00 | 0.00 | 0.00 | 82 | 1016.6 |
| 20260905184548 | 77 | 80 | 6.0 | 13.0 | 0.00 | 0.00 | 0.00 | 82 | 1016.7 |
| 20260905183045 | 77 | 65 | 6.0 | 13.0 | 0.00 | 0.00 | 0.00 | 81 | 1016.5 |
| 20260905181544 | 77 | 6 | 4.0 | 10.0 | 0.00 | 0.00 | 0.00 | 82 | 1016.6 |
| 20260905180047 | 77 | 48 | 4.0 | 8.0 | 0.00 | 0.00 | 0.00 | 82 | 1016.5 |
| 20260905174552 | 77 | 58 | 3.0 | 8.0 | 0.00 | 0.00 | 0.00 | 82 | 1016.4 |
| 20260905173057 | 77 | 41 | 4.0 | 9.0 | 0.00 | 0.00 | 0.00 | 81 | 1016.5 |
| 20260905171550 | 76 | 34 | 2.0 | 5.0 | 0.00 | 0.00 | 0.00 | 82 | 1016.6 |
| 20260905170048 | 76 | 60 | 2.0 | 7.0 | 0.00 | 0.00 | 0.00 | 81 | 1016.6 |
| 20260905164542 | 76 | 68 | 3.0 | 6.0 | 0.00 | 0.01 | 0.00 | 81 | 1016.8 |
| 20260905163050 | 76 | 62 | 3.0 | 6.0 | 0.00 | 0.01 | 0.00 | 82 | 1016.6 |
| 20260905161547 | 76 | 63 | 4.0 | 9.0 | 0.00 | 0.01 | 0.00 | 82 | 1016.8 |
| 20260905160045 | 74 | 5 | 3.0 | 8.0 | 0.00 | 0.01 | 0.00 | 85 | 1016.8 |
| 20260905154540 | 74 | 34 | 4.0 | 10.0 | 0.00 | 0.16 | 0.00 | 86 | 1016.7 |
| 20260905153047 | 74 | 37 | 3.0 | 9.0 | 0.00 | 0.16 | 0.00 | 86 | 1016.6 |
| 20260905151549 | 74 | 54 | 4.0 | 10.0 | 0.00 | 0.16 | 0.00 | 85 | 1016.5 |
| 20260905150043 | 74 | 0 | 0.0 | 7.0 | 0.00 | 0.16 | 0.00 | 86 | 1016.4 |
| 20260905144543 | 73 | 60 | 4.0 | 10.0 | 0.00 | 0.26 | 0.00 | 86 | 1016.3 |
| 20260905143048 | 72 | 39 | 3.0 | 8.0 | 0.00 | 0.26 | 0.00 | 86 | 1016.0 |
| 20260905141546 | 71 | 41 | 3.0 | 9.0 | 0.00 | 0.26 | 0.00 | 85 | 1015.9 |
| 20260905140046 | 71 | 354 | 3.0 | 8.0 | 0.00 | 0.26 | 0.00 | 84 | 1015.9 |
| 20260905134558 | 71 | 30 | 4.0 | 10.0 | 0.00 | 0.27 | 0.00 | 84 | 1015.9 |
| 20260905133054 | 71 | 8 | 2.0 | 8.0 | 0.00 | 0.27 | 0.00 | 83 | 1016.0 |
| 20260905131547 | 71 | 44 | 1.0 | 5.0 | 0.00 | 0.27 | 0.00 | 82 | 1016.3 |
| 20260905130044 | 70 | 81 | 0.0 | 7.0 | 0.00 | 0.27 | 0.00 | 82 | 1015.6 |
| 20260905124549 | 70 | 24 | 3.0 | 8.0 | 0.00 | 0.27 | 0.00 | 83 | 1015.6 |
| 20260905123048 | 70 | 70 | 2.0 | 5.0 | 0.00 | 0.27 | 0.00 | 83 | 1015.4 |
| 20260905121542 | 70 | 72 | 1.0 | 5.0 | 0.00 | 0.27 | 0.00 | 83 | 1015.1 |
| 20260905120050 | 69 | 30 | 1.0 | 4.0 | 0.00 | 0.27 | 0.00 | 83 | 1015.1 |
| 20260905114545 | 69 | 45 | 2.0 | 8.0 | 0.00 | 0.27 | 0.00 | 83 | 1014.9 |
| 20260905113042 | 69 | 28 | 2.0 | 8.0 | 0.00 | 0.27 | 0.00 | 83 | 1014.8 |
| 20260905111548 | 69 | 53 | 4.0 | 11.0 | 0.00 | 0.27 | 0.00 | 84 | 1014.7 |
| 20260905110104 | 69 | 58 | 5.0 | 9.0 | 0.00 | 0.27 | 0.00 | 84 | 1014.4 |
| 20260905104556 | 70 | 34 | 3.0 | 8.0 | 0.00 | 0.27 | 0.00 | 84 | 1014.3 |
| 20260905103051 | 70 | 72 | 2.0 | 7.0 | 0.00 | 0.27 | 0.00 | 84 | 1014.5 |
| 20260905101551 | 70 | 64 | 3.0 | 8.0 | 0.00 | 0.27 | 0.00 | 84 | 1014.3 |
| 20260905100045 | 70 | 7 | 3.0 | 8.0 | 0.00 | 0.27 | 0.00 | 84 | 1014.3 |
| 20260905094542 | 70 | 58 | 0.0 | 3.0 | 0.00 | 0.28 | 0.00 | 84 | 1014.0 |
| 20260905093044 | 70 | 0 | 0.0 | 2.0 | 0.00 | 0.28 | 0.00 | 84 | 1014.1 |
| 20260905091601 | 70 | 0 | 0.0 | 3.0 | 0.00 | 0.28 | 0.00 | 84 | 1014.0 |
| 20260905090045 | 70 | 32 | 1.0 | 5.0 | 0.00 | 0.28 | 0.00 | 84 | 1014.1 |
| 20260905084542 | 70 | 30 | 2.0 | 5.0 | 0.00 | 0.29 | 0.00 | 84 | 1014.0 |
| 20260905083049 | 70 | 0 | 1.0 | 3.0 | 0.00 | 0.29 | 0.00 | 84 | 1014.0 |
| 20260905081600 | 70 | 27 | 0.0 | 3.0 | 0.00 | 0.29 | 0.00 | 85 | 1013.9 |
| 20260905080041 | 70 | 0 | 0.0 | 5.0 | 0.00 | 0.29 | 0.00 | 85 | 1013.9 |
| 20260905074542 | 70 | 0 | 1.0 | 2.0 | 0.00 | 0.30 | 0.00 | 85 | 1014.0 |
| 20260905073045 | 70 | 0 | 0.0 | 1.0 | 0.00 | 0.30 | 0.00 | 85 | 1013.9 |
| 20260905071543 | 70 | 0 | 0.0 | 3.0 | 0.00 | 0.30 | 0.00 | 86 | 1013.9 |
| 20260905070050 | 70 | 0 | 0.0 | 0.0 | 0.00 | 0.30 | 0.00 | 86 | 1013.8 |
| 20260905064550 | 70 | 0 | 0.0 | 0.0 | 0.00 | 0.30 | 0.00 | 86 | 1013.9 |
| 20260905063052 | 71 | 0 | 0.0 | 0.0 | 0.00 | 0.30 | 0.00 | 86 | 1013.9 |
| 20260905061545 | 71 | 0 | 0.0 | 0.0 | 0.00 | 0.30 | 0.00 | 86 | 1014.0 |
| 20260905060040 | 71 | 0 | 0.0 | 3.0 | 0.00 | 0.30 | 0.00 | 86 | 1014.2 |
| 20260905054551 | 71 | 0 | 1.0 | 3.0 | 0.00 | 0.30 | 0.00 | 86 | 1014.1 |
| 20260905053044 | 71 | 0 | 0.0 | 0.0 | 0.00 | 0.30 | 0.00 | 86 | 1013.7 |
| 20260905051544 | 71 | 0 | 0.0 | 0.0 | 0.00 | 0.30 | 0.00 | 87 | 1014.0 |
| 20260905050042 | 72 | 0 | 0.0 | 0.0 | 0.00 | 0.30 | 0.00 | 87 | 1014.0 |
| 20260905044540 | 72 | 0 | 0.0 | 0.0 | 0.00 | 0.30 | 0.30 | 87 | 1014.2 |
| 20260905043044 | 72 | 0 | 0.0 | 1.0 | 0.00 | 0.30 | 0.30 | 86 | 1014.6 |
| 20260905041543 | 72 | 0 | 0.0 | 2.0 | 0.00 | 0.30 | 0.30 | 86 | 1014.5 |
| 20260905040055 | 71 | 0 | 0.0 | 2.0 | 0.00 | 0.30 | 0.30 | 86 | 1014.3 |
| 20260905034545 | 71 | 0 | 0.0 | 0.0 | 0.00 | 0.30 | 0.30 | 87 | 1014.0 |
| 20260905033050 | 71 | 0 | 0.0 | 0.0 | 0.00 | 0.30 | 0.30 | 87 | 1014.2 |
| 20260905031551 | 71 | 0 | 0.0 | 0.0 | 0.00 | 0.30 | 0.30 | 87 | 1014.2 |
| 20260905030048 | 72 | 0 | 0.0 | 0.0 | 0.00 | 0.30 | 0.30 | 87 | 1014.6 |
| 20260905024542 | 72 | 0 | 0.0 | 0.0 | 0.00 | 0.30 | 0.30 | 87 | 1014.5 |
| 20260905023043 | 72 | 0 | 0.0 | 1.0 | 0.00 | 0.30 | 0.30 | 87 | 1014.4 |
| 20260905021549 | 72 | 0 | 0.0 | 2.0 | 0.00 | 0.30 | 0.30 | 87 | 1014.4 |
| 20260905020040 | 73 | 0 | 0.0 | 3.0 | 0.00 | 0.30 | 0.30 | 87 | 1014.5 |
| 20260905014543 | 73 | 77 | 1.0 | 4.0 | 0.00 | 0.30 | 0.30 | 87 | 1014.5 |
| 20260905013047 | 73 | 75 | 2.0 | 3.0 | 0.00 | 0.30 | 0.30 | 87 | 1014.5 |
| 20260905011543 | 74 | 0 | 0.0 | 2.0 | 0.00 | 0.30 | 0.30 | 87 | 1014.4 |
| 20260905010045 | 74 | 75 | 1.0 | 2.0 | 0.00 | 0.30 | 0.30 | 87 | 1014.1 |
| 20260905004609 | 75 | 77 | 1.0 | 4.0 | 0.00 | 0.30 | 0.30 | 86 | 1013.7 |
| 20260905003049 | 75 | 74 | 1.0 | 3.0 | 0.00 | 0.30 | 0.30 | 84 | 1013.6 |
| 20260905001544 | 76 | 0 | 1.0 | 3.0 | 0.00 | 0.30 | 0.30 | 84 | 1013.6 |
| 20260905000043 | 76 | 76 | 1.0 | 2.0 | 0.00 | 0.30 | 0.30 | 83 | 1013.6 |
| 20260904234550 | 76 | 0 | 0.0 | 4.0 | 0.00 | 0.30 | 0.30 | 83 | 1013.5 |
| 20260904233045 | 77 | 69 | 2.0 | 6.0 | 0.00 | 0.30 | 0.30 | 82 | 1013.2 |
| 20260904231546 | 77 | 51 | 1.0 | 5.0 | 0.00 | 0.30 | 0.30 | 82 | 1013.1 |
| 20260904224541 | 78 | 51 | 1.0 | 5.0 | 0.00 | 0.30 | 0.30 | 80 | 1013.2 |
| 20260904223050 | 78 | 70 | 2.0 | 7.0 | 0.00 | 0.30 | 0.30 | 80 | 1013.2 |
| 20260904221543 | 78 | 82 | 4.0 | 7.0 | 0.00 | 0.30 | 0.30 | 79 | 1013.2 |
| 20260904220044 | 78 | 86 | 3.0 | 6.0 | 0.00 | 0.30 | 0.30 | 80 | 1013.2 |
| 20260904214548 | 78 | 33 | 4.0 | 7.0 | 0.00 | 0.30 | 0.30 | 79 | 1013.2 |
| 20260904213044 | 80 | 70 | 4.0 | 8.0 | 0.00 | 0.30 | 0.30 | 74 | 1013.0 |
| 20260904211549 | 87 | 80 | 3.0 | 6.0 | 0.00 | 0.30 | 0.30 | 65 | 1012.9 |
| 20260904210048 | 87 | 328 | 0.0 | 4.0 | 0.00 | 0.30 | 0.30 | 70 | 1012.8 |